Weather History for Tekamah, NE

Change the Weather History Date:

Sunday, November 6, 2011

  Actual Average Record
Temperature  
Mean Temperature 44 °F -  
Max Temperature 57 °F 51 °F 78 °F (2004)
Min Temperature 30 °F 30 °F 7 °F (1959)
Degree Days  
Heating Degree Days 20    
Moisture  
Dew Point 32 °F    
Average Humidity 58    
Maximum Humidity 72    
Minimum Humidity 30    
Precipitation  
Precipitation 0.00 in - - ()
Sea Level Pressure  
Sea Level Pressure 29.81 in    
Wind  
Wind Speed 17 mph (SW)    
Max Wind Speed 24 mph    
Max Gust Speed 33 mph    
Visibility 10 miles    
Events      
Averages and records for this station are not official NWS values.
T = Trace of Precipitation, MM = Missing Value Source: NWS Daily Summary

Daily Weather History Graph

Daily Weather History Graph

Search for Another Location

Airport:

Trip Planner

Search our weather history database for the weather conditions in past years. The results will help you decide how hot, cold, wet, or windy it might be!

Date:

Astronomy

Nov. 06, 2011 Rise Set
Actual Time 7:02 AM CST 5:13 PM CST
Civil Twilight 6:33 AM CST 5:42 PM CST
Nautical Twilight 6:00 AM CST 6:15 PM CST
Astronomical Twilight 5:27 AM CST 6:48 PM CST
Moon 3:00 PM CST (11/6) 3:07 AM CST (11/6)
Length of Visible Light 11h 09m
Length of Day
10h 10m
Waxing Gibbous, 86% of the Moon is Illuminated
Nov 6
Waxing Gibbous
Nov 10
Full
Nov 18
Last Quarter
Nov 25
New
Dec 2
First Quarter

Hourly Weather History & Observations

Time (CST) Temp. Windchill Dew Point Humidity Pressure Visibility Wind Dir Wind Speed Gust Speed Precip Events Conditions
12:54 AM 52.0 °F - 42.1 °F 69% 29.58 in 10.0 mi SSE 20.7 mph - N/A   Clear
1:54 AM 51.1 °F - 41.0 °F 68% 29.56 in 10.0 mi SSE 21.9 mph 28.8 mph N/A   Clear
1:54 AM 52.0 °F - 42.1 °F 69% 29.55 in 10.0 mi South 24.2 mph 33.4 mph N/A   Clear
2:54 AM 52.0 °F - 42.1 °F 69% 29.55 in 10.0 mi South 20.7 mph 28.8 mph N/A   Clear
3:54 AM 52.0 °F - 43.0 °F 71% 29.54 in 10.0 mi South 21.9 mph 29.9 mph N/A   Clear
4:54 AM 52.0 °F - 43.0 °F 71% 29.56 in 10.0 mi South 24.2 mph 29.9 mph N/A   Clear
5:54 AM 51.1 °F - 41.0 °F 68% 29.61 in 10.0 mi SSW 15.0 mph - N/A   Clear
6:15 AM 46.4 °F 38.1 °F 37.4 °F 71% 29.66 in 10.0 mi West 24.2 mph 32.2 mph N/A   Clear
6:54 AM 43.0 °F 35.1 °F 34.0 °F 71% 29.71 in 10.0 mi West 17.3 mph - N/A   Clear
7:54 AM 42.1 °F 35.7 °F 33.1 °F 70% 29.78 in 8.0 mi West 11.5 mph - N/A   Clear
8:54 AM 44.1 °F 36.8 °F 32.0 °F 63% 29.83 in 9.0 mi West 16.1 mph 21.9 mph N/A   Clear
9:54 AM 46.9 °F - 30.9 °F 54% 29.86 in 10.0 mi West 13.8 mph - N/A   Clear
10:54 AM 50.0 °F - 30.0 °F 46% 29.89 in 10.0 mi West 13.8 mph 23.0 mph N/A   Clear
11:54 AM 52.0 °F - 30.0 °F 43% 29.89 in 10.0 mi WSW 15.0 mph - N/A   Clear
12:54 PM 54.0 °F - 30.0 °F 40% 29.89 in 10.0 mi West 11.5 mph 19.6 mph N/A   Clear
1:54 PM 55.9 °F - 28.0 °F 34% 29.90 in 10.0 mi West 11.5 mph - N/A   Clear
2:54 PM 57.0 °F - 27.0 °F 32% 29.91 in 10.0 mi West 11.5 mph - N/A   Clear
3:54 PM 55.9 °F - 25.0 °F 30% 29.92 in 10.0 mi WSW 8.1 mph - N/A   Clear
4:54 PM 52.0 °F - 25.0 °F 35% 29.95 in 10.0 mi WSW 5.8 mph - N/A   Clear
5:54 PM 43.0 °F 38.2 °F 24.1 °F 47% 29.98 in 9.0 mi SSW 8.1 mph - N/A   Clear
6:54 PM 36.0 °F 30.3 °F 23.0 °F 59% 30.02 in 8.0 mi SSW 6.9 mph - N/A   Clear
7:54 PM 33.1 °F 26.9 °F 21.9 °F 64% 30.04 in 8.0 mi SW 6.9 mph - N/A   Clear
9:54 PM 32.0 °F 24.2 °F 23.0 °F 69% 30.08 in 9.0 mi South 9.2 mph - N/A   Clear
10:54 PM 30.0 °F 22.4 °F 21.9 °F 72% 30.08 in 10.0 mi SSW 8.1 mph - N/A   Clear